GW1213 Weather Reports


time (UTC)temp
C
wind
direction
speed
KPH
gust
KPH
rain 1hr
cm
rain 24hr
cm
rain mn
cm
humidity
%
barometer
mb
20260504050538 7 0 0.0 0.0 0.00 0.00 0.00 83 1015.4
20260504045537 7 0 0.0 0.0 0.00 0.00 0.00 83 1015.3
20260504045038 7 0 0.0 0.0 0.00 0.00 0.00 83 1015.3
20260504044552 7 0 0.0 0.0 0.00 0.00 0.00 83 1015.2
20260504044038 7 0 0.0 0.0 0.00 0.00 0.00 83 1015.2
20260504043538 7 0 0.0 0.0 0.00 0.00 0.00 83 1015.2
20260504043047 7 0 0.0 0.0 0.00 0.00 0.00 83 1015.2
20260504042538 7 0 0.0 0.0 0.00 0.00 0.00 83 1015.1
20260504042040 7 0 0.0 0.0 0.00 0.00 0.00 84 1015.1
20260504041546 7 0 0.0 0.0 0.00 0.00 0.00 84 1015.2
20260504041038 7 0 0.0 0.0 0.00 0.00 0.00 85 1015.2
20260504040538 7 0 0.0 0.0 0.00 0.00 0.00 84 1015.2
20260504040104 7 0 0.0 0.0 0.00 0.00 0.00 84 1015.3
20260504035540 7 0 0.0 0.0 0.00 0.00 0.00 84 1015.2
20260504035040 7 0 0.0 0.0 0.00 0.00 0.00 85 1015.3
20260504034557 7 0 0.0 0.0 0.00 0.00 0.00 84 1015.3
20260504034037 7 0 0.0 0.0 0.00 0.00 0.00 84 1015.3
20260504033538 7 0 0.0 0.0 0.00 0.00 0.00 84 1015.2
20260504033119 7 0 0.0 0.0 0.00 0.00 0.00 84 1015.2
20260504032537 7 0 0.0 0.0 0.00 0.00 0.00 84 1015.2
20260504032038 7 0 0.0 0.0 0.00 0.00 0.00 83 1015.2
20260504031546 7 0 0.0 0.0 0.00 0.00 0.00 83 1015.3
20260504031038 7 0 0.0 0.0 0.00 0.00 0.00 82 1015.3
20260504030537 7 0 0.0 0.0 0.00 0.00 0.00 82 1015.2
20260504030056 7 0 0.0 0.0 0.00 0.00 0.00 81 1015.2
20260504025538 7 0 0.0 0.0 0.00 0.00 0.00 80 1015.2
20260504025038 7 0 0.0 0.0 0.00 0.00 0.00 80 1015.2
20260504024552 7 0 0.0 0.0 0.00 0.00 0.00 79 1015.1
20260504024037 8 0 0.0 0.0 0.00 0.00 0.00 79 1015.2
20260504023538 8 0 0.0 0.0 0.00 0.00 0.00 78 1015.2
20260504023100 8 0 0.0 0.0 0.00 0.00 0.00 78 1015.2
20260504022539 8 0 0.0 0.0 0.00 0.00 0.00 78 1015.2
20260504022037 8 0 0.0 0.0 0.00 0.00 0.00 78 1015.2
20260504021553 8 0 0.0 0.0 0.00 0.00 0.00 77 1015.2
20260504021037 8 0 0.0 0.0 0.00 0.00 0.00 76 1015.1
20260504020537 8 0 0.0 0.0 0.00 0.00 0.00 75 1015.1
20260504020056 9 0 0.0 0.0 0.00 0.00 0.00 74 1015.0
20260504015537 9 0 0.0 0.0 0.00 0.00 0.00 74 1015.0
20260504015039 9 0 0.0 0.0 0.00 0.00 0.00 74 1015.0
20260504014550 9 0 0.0 0.0 0.00 0.00 0.00 73 1015.0
20260504014037 10 0 0.0 0.0 0.00 0.00 0.00 71 1015.0
20260504013538 10 0 0.0 0.0 0.00 0.00 0.00 71 1014.9
20260504013100 10 0 0.0 0.0 0.00 0.00 0.00 69 1014.9
20260504012539 10 0 0.0 0.0 0.00 0.00 0.00 67 1014.7
20260504012038 10 0 0.0 0.0 0.00 0.00 0.00 66 1014.7
20260504011551 10 0 0.0 0.0 0.00 0.00 0.00 65 1014.6
20260504011037 10 0 0.0 0.0 0.00 0.00 0.00 65 1014.6
20260504010538 11 0 0.0 0.0 0.00 0.00 0.00 63 1014.6
20260504010054 11 0 0.0 0.0 0.00 0.00 0.00 61 1014.4
20260504005538 11 0 0.0 0.0 0.00 0.00 0.00 61 1014.4
20260504005038 11 0 0.0 0.0 0.00 0.00 0.00 60 1014.4
20260504004600 12 0 0.0 0.0 0.00 0.00 0.00 60 1014.3
20260504004038 12 0 0.0 0.0 0.00 0.00 0.00 58 1014.3
20260504003537 12 0 0.0 0.0 0.00 0.00 0.00 58 1014.2
20260504003051 12 0 0.0 0.0 0.00 0.00 0.00 57 1014.2
20260504002537 13 0 0.0 0.0 0.00 0.00 0.00 54 1014.1
20260504002038 13 0 0.0 0.0 0.00 0.00 0.00 54 1014.2
20260504001558 13 0 0.0 0.0 0.00 0.00 0.00 55 1014.1
20260504001037 14 0 0.0 0.0 0.00 0.00 0.00 53 1014.1
20260504000538 14 0 0.0 0.0 0.00 0.00 0.00 47 1014.1
20260504000055 15 0 0.0 0.0 0.00 0.00 0.00 51 1014.0
20260503235538 15 0 0.0 0.0 0.00 0.00 0.00 47 1013.9
20260503235036 15 0 0.0 0.0 0.00 0.00 0.00 44 1013.9
20260503234551 15 0 0.0 0.0 0.00 0.00 0.00 42 1013.8
20260503234036 16 0 0.0 0.0 0.00 0.00 0.00 36 1013.8
20260503233541 16 0 0.0 0.0 0.00 0.00 0.00 34 1013.7
20260503233054 16 0 0.0 0.0 0.00 0.00 0.00 34 1013.8
20260503232541 16 0 0.0 0.0 0.00 0.00 0.00 34 1013.7
20260503232036 16 0 0.0 0.0 0.00 0.00 0.00 33 1013.7
20260503231548 16 0 0.0 1.6 0.00 0.00 0.00 31 1013.6
20260503231038 16 0 0.0 1.6 0.00 0.00 0.00 30 1013.6
20260503230538 16 0 0.0 3.2 0.00 0.00 0.00 31 1013.6
20260503230059 16 0 0.0 3.2 0.00 0.00 0.00 30 1013.6
20260503225537 17 0 0.0 3.2 0.00 0.00 0.00 31 1013.7
20260503225038 17 260 0.0 6.4 0.00 0.00 0.00 30 1013.7
20260503224546 17 0 0.0 6.4 0.00 0.00 0.00 30 1013.8
20260503224038 17 0 0.0 4.8 0.00 0.00 0.00 30 1013.7
20260503223537 17 198 0.0 12.9 0.00 0.00 0.00 30 1013.9
20260503223049 17 276 4.8 12.9 0.00 0.00 0.00 28 1014.0
20260503222536 17 231 1.6 11.3 0.00 0.00 0.00 30 1014.0
20260503222038 17 0 0.0 3.2 0.00 0.00 0.00 30 1013.9
20260503221554 17 0 0.0 4.8 0.00 0.00 0.00 30 1013.9
20260503221038 17 270 0.0 4.8 0.00 0.00 0.00 29 1014.0
20260503220537 17 267 0.0 9.7 0.00 0.00 0.00 30 1014.0
20260503220051 17 0 3.2 9.7 0.00 0.00 0.00 30 1014.0
20260503215536 17 266 1.6 11.3 0.00 0.00 0.00 29 1014.0
20260503215037 17 0 0.0 11.3 0.00 0.00 0.00 31 1014.0
20260503214547 17 267 0.0 12.9 0.00 0.00 0.00 29 1014.0
20260503214040 17 258 3.2 12.9 0.00 0.00 0.00 29 1014.1
20260503213539 17 279 1.6 12.9 0.00 0.00 0.00 29 1014.1
20260503213100 17 138 3.2 11.3 0.00 0.00 0.00 29 1014.0
20260503212538 17 219 0.0 11.3 0.00 0.00 0.00 30 1014.2
20260503212038 17 259 3.2 11.3 0.00 0.00 0.00 29 1014.1
20260503211546 17 292 0.0 6.4 0.00 0.00 0.00 32 1014.1
20260503211037 18 0 0.0 3.2 0.00 0.00 0.00 30 1014.1
20260503210540 18 0 0.0 6.4 0.00 0.00 0.00 28 1014.1
20260503210055 18 281 1.6 6.4 0.00 0.00 0.00 28 1014.1
20260503205537 18 15 1.6 6.4 0.00 0.00 0.00 31 1014.1
20260503205038 18 15 1.6 9.7 0.00 0.00 0.00 31 1014.1
20260503204553 18 0 1.6 9.7 0.00 0.00 0.00 29 1014.1
20260503204037 18 244 1.6 6.4 0.00 0.00 0.00 28 1014.2
20260503203537 18 352 0.0 11.3 0.00 0.00 0.00 31 1014.2
20260503203050 18 0 3.2 11.3 0.00 0.00 0.00 28 1014.3
20260503202538 18 167 0.0 11.3 0.00 0.00 0.00 28 1014.3
20260503202037 18 178 4.8 11.3 0.00 0.00 0.00 27 1014.4
20260503201548 18 217 1.6 11.3 0.00 0.00 0.00 28 1014.4
20260503201039 18 270 1.6 11.3 0.00 0.00 0.00 28 1014.5
20260503200537 18 0 0.0 8.0 0.00 0.00 0.00 27 1014.6
20260503200100 18 0 1.6 8.0 0.00 0.00 0.00 32 1014.7
20260503195538 18 0 3.2 9.7 0.00 0.00 0.00 28 1014.8
20260503195038 17 269 1.6 9.7 0.00 0.00 0.00 30 1014.9
20260503194551 17 264 1.6 6.4 0.00 0.00 0.00 32 1015.1
20260503194037 17 0 0.0 6.4 0.00 0.00 0.00 33 1015.1
20260503193539 17 79 0.0 11.3 0.00 0.00 0.00 31 1015.1
20260503193052 17 0 1.6 11.3 0.00 0.00 0.00 30 1015.2
20260503192538 17 152 3.2 11.3 0.00 0.00 0.00 30 1015.3
20260503192039 16 254 3.2 11.3 0.00 0.00 0.00 30 1015.4
20260503191608 16 254 3.2 11.3 0.00 0.00 0.00 30 1015.5
20260503191038 17 206 1.6 9.7 0.00 0.00 0.00 34 1015.4
20260503190536 17 288 1.6 9.7 0.00 0.00 0.00 33 1015.4
20260503190051 17 0 3.2 9.7 0.00 0.00 0.00 31 1015.6
20260503185542 17 261 0.0 9.7 0.00 0.00 0.00 33 1015.6
20260503185038 17 289 1.6 9.7 0.00 0.00 0.00 36 1015.8
20260503184556 17 344 1.6 6.4 0.00 0.00 0.00 34 1015.7
20260503184041 16 355 1.6 6.4 0.00 0.00 0.00 33 1015.8
20260503183538 16 275 1.6 6.4 0.00 0.00 0.00 31 1016.0
20260503183114 16 317 1.6 6.4 0.00 0.00 0.00 34 1016.0
20260503182536 16 360 1.6 6.4 0.00 0.00 0.00 31 1016.0
20260503182036 16 5 1.6 6.4 0.00 0.00 0.00 36 1016.0
20260503181551 16 293 3.2 6.4 0.00 0.00 0.00 30 1016.0
20260503181038 16 295 3.2 9.7 0.00 0.00 0.00 31 1016.1
20260503180542 16 0 3.2 12.9 0.00 0.00 0.00 34 1016.1
20260503180052 16 273 4.8 12.9 0.00 0.00 0.00 30 1016.2
20260503175537 16 0 0.0 11.3 0.00 0.00 0.00 31 1016.1
20260503175041 16 278 3.2 11.3 0.00 0.00 0.00 32 1016.2
20260503174549 16 339 1.6 14.5 0.00 0.00 0.00 33 1016.2
20260503174038 16 272 3.2 14.5 0.00 0.00 0.00 33 1016.1
20260503173537 15 207 3.2 11.3 0.00 0.00 0.00 33 1016.2
20260503173113 15 232 3.2 14.5 0.00 0.00 0.00 31 1016.4
20260503172537 15 226 1.6 14.5 0.00 0.00 0.00 35 1016.4
20260503172044 15 292 1.6 6.4 0.00 0.00 0.00 33 1016.4
20260503171550 15 297 1.6 12.9 0.00 0.00 0.00 35 1016.5
20260503171038 15 350 1.6 12.9 0.00 0.00 0.00 40 1016.5
20260503170537 15 209 3.2 11.3 0.00 0.00 0.00 33 1016.5
20260503150534 12 349 3.2 8.0 0.00 0.00 0.00 42 1017.3
20260503131033 10 290 3.2 16.1 0.00 0.00 0.00 52 1017.5
20260503130536 10 341 3.2 16.1 0.00 0.00 0.00 57 1017.6
20260503110534 6 0 0.0 0.0 0.00 0.00 0.00 71 1016.5
20260503081551 6 0 0.0 0.0 0.00 0.00 0.00 63 1014.8
20260503081035 6 0 0.0 0.0 0.00 0.00 0.00 63 1014.7
20260503080540 7 0 0.0 0.0 0.00 0.00 0.00 63 1014.6
20260503072538 7 0 0.0 0.0 0.00 0.00 0.00 58 1014.5
20260503072036 8 0 0.0 0.0 0.00 0.00 0.00 57 1014.4
20260503071550 8 0 0.0 0.0 0.00 0.00 0.00 57 1014.2
20260503071039 8 0 0.0 0.0 0.00 0.00 0.00 57 1014.2
20260503070538 8 0 0.0 3.2 0.00 0.00 0.00 56 1014.1
20260503055037 9 0 0.0 3.2 0.00 0.00 0.00 55 1013.7